Vero Beach, FL

11:56 AM EDT on September 23, 2017 (GMT -0400)
Vero Beach Municipal

Weather History for KVRB - December, 2013

Change the Weather History Date:

Wednesday, December 4, 2013

  Actual Average Record
Temperature  
Mean Temperature 71 °F 67 °F  
Max Temperature 83 °F 76 °F 84 °F (1994)
Min Temperature 58 °F 58 °F 37 °F (1989)
Degree Days  
Heating Degree Days 0 2  
Month to date heating degree days 1 8  
Since 1 July heating degree days 12 38  
Cooling Degree Days 6 4  
Month to date cooling degree days 12 16  
Year to date cooling degree days 3485 3327  
Growing Degree Days 20 (Base 50)    
Moisture  
Dew Point 63 °F    
Average Humidity 76    
Maximum Humidity 100    
Minimum Humidity 51    
Precipitation  
Precipitation 0.00 in 0.08 in 1.58 in (1964)
Month to date precipitation 1.33 0.31  
Year to date precipitation 43.54 49.99  
Sea Level Pressure  
Sea Level Pressure 30.05 in    
Wind  
Wind Speed 5 mph (South)    
Max Wind Speed 14 mph    
Max Gust Speed 17 mph    
Visibility 7 miles    
Events Fog    
T = Trace of Precipitation, MM = Missing Value Source: NWS Daily Summary

Daily Weather History Graph

Daily Weather History Graph

Search for Another Location

Airport or City:

Trip Planner

Search our weather history database for the weather conditions in past years. The results will help you decide how hot, cold, wet, or windy it might be!

Date:

Astronomy

Dec. 04, 2013 Rise Set
Actual Time 6:57 AM EST 5:26 PM EST
Civil Twilight 6:31 AM EST 5:51 PM EST
Nautical Twilight 6:03 AM EST 6:20 PM EST
Astronomical Twilight 5:34 AM EST 6:49 PM EST
Moon 8:27 AM EST (12/4) 7:31 PM EST (12/4)
Length of Visible Light 11h 20m
Length of Day
10h 29m
Waxing Crescent, 4% of the Moon is Illuminated
Dec 4
Waxing Crescent
Dec 9
First Quarter
Dec 17
Full
Dec 25
Last Quarter
Jan 1
New

Hourly Weather History & Observations

Time (EST) Temp. Heat Index Dew Point Humidity Pressure Visibility Wind Dir Wind Speed Gust Speed Precip Events Conditions
12:53 AM 64.9 °F - 63.0 °F 93% 30.01 in 10.0 mi SSW 4.6 mph - N/A   Clear
1:53 AM 64.9 °F - 63.0 °F 93% 30.01 in 10.0 mi SW 5.8 mph - N/A   Clear
2:53 AM 63.0 °F - 62.1 °F 97% 30.01 in 10.0 mi SW 3.5 mph - N/A   Clear
3:53 AM 62.1 °F - 62.1 °F 100% 30.01 in 10.0 mi Calm Calm - N/A   Mostly Cloudy
4:00 AM 62.6 °F - 60.8 °F 94% 30.01 in 10.0 mi Calm Calm - N/A   Scattered Clouds
4:53 AM 59.0 °F - 59.0 °F 100% 30.01 in 6.0 mi Calm Calm - N/A   Clear
5:01 AM 59.0 °F - 59.0 °F 100% 30.02 in 1.8 mi Calm Calm - N/A   Clear
5:15 AM 60.8 °F - 60.8 °F 100% 30.02 in 3.0 mi Calm Calm - N/A   Clear
5:53 AM 59.0 °F - 59.0 °F 100% 30.03 in 6.0 mi Calm Calm - N/A   Clear
6:03 AM 57.2 °F - 57.2 °F 100% 30.04 in 1.5 mi Calm Calm - N/A   Clear
6:24 AM 57.2 °F - 57.2 °F 100% 30.04 in 0.5 mi Calm Calm - N/A Fog Fog
6:33 AM 59.0 °F - 59.0 °F 100% 30.04 in 0.5 mi Calm Calm - N/A Fog Fog
6:53 AM 59.0 °F - 59.0 °F 100% 30.05 in 0.8 mi Calm Calm - N/A   Clear
7:09 AM 59.0 °F - 59.0 °F 100% 30.06 in 0.2 mi Calm Calm - N/A Fog Fog
7:14 AM 59.0 °F - 59.0 °F 100% 30.06 in 1.0 mi Calm Calm - N/A   Clear
7:22 AM 59.0 °F - 59.0 °F 100% 30.06 in 3.0 mi Calm Calm - N/A   Clear
7:53 AM 63.0 °F - 63.0 °F 100% 30.06 in 10.0 mi Calm Calm - N/A   Clear
8:53 AM 72.0 °F - 66.9 °F 84% 30.08 in 10.0 mi SSW 8.1 mph - N/A   Clear
9:53 AM 75.9 °F - 66.9 °F 74% 30.10 in 10.0 mi SSW 8.1 mph - N/A   Clear
10:53 AM 79.0 °F - 64.9 °F 62% 30.09 in 10.0 mi SSW 6.9 mph - N/A   Scattered Clouds
11:53 AM 81.0 °F 82.7 °F 64.9 °F 58% 30.07 in 10.0 mi SSW 12.7 mph 16.1 mph N/A   Scattered Clouds
12:53 PM 81.0 °F 82.5 °F 64.0 °F 56% 30.05 in 10.0 mi SW 6.9 mph - N/A   Scattered Clouds
1:53 PM 82.0 °F 83.0 °F 62.1 °F 51% 30.03 in 10.0 mi South 8.1 mph - N/A   Scattered Clouds
2:53 PM 82.9 °F 83.7 °F 62.1 °F 49% 30.03 in 10.0 mi Variable 5.8 mph - N/A   Scattered Clouds
3:53 PM 77.0 °F - 64.9 °F 66% 30.04 in 10.0 mi SE 8.1 mph - N/A   Partly Cloudy
4:53 PM 75.9 °F - 68.0 °F 76% 30.05 in 10.0 mi SE 8.1 mph - N/A   Partly Cloudy
5:53 PM 73.0 °F - 68.0 °F 84% 30.06 in 10.0 mi SE 6.9 mph - N/A   Clear
6:53 PM 71.1 °F - 68.0 °F 90% 30.08 in 10.0 mi South 3.5 mph - N/A   Clear
7:53 PM 69.1 °F - 66.9 °F 93% 30.08 in 10.0 mi SSE 5.8 mph - N/A   Clear
8:53 PM 68.0 °F - 66.0 °F 93% 30.10 in 10.0 mi SSE 3.5 mph - N/A   Clear
9:53 PM 70.0 °F - 64.9 °F 84% 30.10 in 10.0 mi South 6.9 mph - N/A   Clear
10:53 PM 69.1 °F - 64.9 °F 87% 30.10 in 10.0 mi South 5.8 mph - N/A   Clear
11:53 PM 64.0 °F - 63.0 °F 96% 30.11 in 10.0 mi Calm Calm - N/A   Clear